Location: Burgwalden
(48.2830°N, 10.7576°E)
Time: 01:54:20
(UTC+00:00)

ALOS - Pass Details

Date: 26 September 2023
Orbit: 676 x 679 km, 98.0° (Epoch: 04 December)

Event Time Altitude Azimuth Distance (km) Brightness Sun altitude
Rises 03:00:11 0° 7° (N) 3,055 6.1 -21.6°
Reaches altitude 10° 03:02:31 10° 1° (N) 2,135 5.1 -21.2°
Maximum altitude 03:06:53 41° 292° (WNW) 990 2.7 -20.6°
Enters shadow 03:07:03 41° 286° (WNW) 993 2.7 -20.5°
